[[{"header":{"parameterUnit":"m.s-1","parameterCategory":1,"la1":30.2992,"la2":30.254,"lo1":-89.0895,"lo2":-89.0443,"dy":0.0025,"dx":0.0025,"nx":19,"ny":19,"refTime":"2026-04-23T03:00:00:Z","depth":0,"parameterNumber":2,"parameterNumberName":"U-component_of_WINDS"},"data":[0,0,0,-4.6386,-4.6389,-4.6532,-4.6533,-4.6728,-4.673,0,0,0,0,0,0,0,0,0,0,0,-4.6352,-4.6354,-4.6385,-4.6389,-4.6532,-4.6533,-4.6728,-4.673,0,0,0,0,0,0,0,0,0,0,0,-4.6352,-4.6354,-4.6356,-4.639,-4.6532,-4.6533,-4.6727,-4.6614,0,0,0,0,0,0,0,0,0,0,-4.6473,-4.6452,-4.6353,-4.6356,-4.6391,-4.6532,-4.6533,-4.6609,-4.6621,-4.6669,0,-4.6715,0,-4.6726,-4.6744,-4.6745,0,0,0,-4.6382,-4.6441,-4.6472,-4.6356,-4.6392,-4.6532,-4.6466,-4.6616,-4.663,-4.6686,-4.6718,-4.6725,-4.6729,-4.6745,-4.6746,-4.7049,-4.705,0,0,-4.6374,-4.6383,-4.6462,-4.6482,-4.6462,-4.6461,-4.647,-4.6624,-4.6659,-4.6719,-4.6729,-4.6732,-4.6747,-4.6748,-4.7047,-4.7049,0,0,0,-4.6356,-4.6377,-4.6404,-4.6474,-4.6499,-4.6465,-4.6476,-4.6652,-4.666,-4.6731,-4.6735,-4.6748,-4.675,-4.7045,-4.7048,-4.7142,0,0,0,-4.6351,-4.6367,-4.6401,-4.6407,-4.6497,-4.6578,-4.65,-4.6649,-4.6666,-4.6734,-4.6748,-4.6752,-4.7043,-4.7046,-4.7136,-4.7185,0,0,0,-4.634,-4.6366,-4.639,-4.6408,-4.647,-4.6575,-4.6592,-4.6653,-4.6669,-4.6745,-4.6753,-4.7042,-4.7046,-4.713,-4.7175,-4.7266,0,0,0,-4.633,-4.6472,-4.6391,-4.6551,-4.6469,-4.6634,-4.659,-4.6713,-4.6789,-4.6749,-4.7043,-4.7047,-4.7128,-4.7169,-4.7259,-4.7342,-4.7379,0,0,-4.6513,-4.6494,-4.6587,-4.652,-4.6701,-4.6611,-4.6806,-4.6867,-4.6866,-4.6987,-4.6995,-4.7138,-4.7174,-4.7264,-4.7581,-4.761,0,0,0,-4.6648,-4.6715,-4.6761,-4.6835,-4.6887,-4.6934,-4.6964,-4.6987,-4.709,-4.6931,-4.7196,-4.7217,-4.727,-4.7309,-4.7334,-4.7377,-4.7067,-4.7066,-4.7066,-4.6918,-4.691,-4.7064,-4.7073,-4.7145,-4.7176,-4.7233,-4.7269,-4.7239,-4.7302,-4.7337,-4.7531,-4.7577,-4.7595,-4.7641,-4.7382,-4.7383,-4.7383,-4.7383,-4.7184,-4.7277,-4.7236,-4.7369,-4.7359,-4.7471,-4.7506,-4.7482,-4.7583,-4.7503,-4.7549,-4.7461,-4.7627,-4.7666,-4.739,-4.7389,-4.7388,-4.7387,-4.7387,-4.7358,-4.7401,-4.7428,-4.7534,-4.7616,-4.7621,-4.7721,-4.7709,-4.7698,-4.7743,-4.7778,-4.7776,-4.7771,-4.7761,-4.7762,-4.7763,-4.7763,-4.7764,-4.7764,-4.7527,-4.7554,-4.764,-4.7708,-4.7753,-4.7812,-4.7845,-4.789,-4.7935,-4.7918,-4.7918,-4.7881,-4.7646,-4.7586,-4.7775,-4.7773,-4.7771,-4.777,-4.777,-4.7796,-4.7734,-4.7867,-4.7913,-4.799,-4.8072,-4.8057,-4.8148,-4.8183,-4.8232,-4.8186,-4.8015,-4.7993,-4.7974,-4.7924,-4.8189,-4.8189,-4.8189,-4.8189,-4.7941,-4.793,-4.8063,-4.8138,-4.8209,-4.8209,-4.8357,-4.8385,-4.8403,-4.8424,-4.8384,-4.8318,-4.8298,-4.8288,-4.8262,-4.8214,-4.8548,-4.8548,-4.8548,-4.8105,-4.8101,-4.823,-4.8249,-4.8309,-4.836,-4.8499,-4.8585,-4.8592,-4.8563,-4.8439,-4.8424,-4.8316,-4.8282,-4.8247,-4.8206,-4.812,0,0]},{"header":{"parameterUnit":"m.s-1","parameterCategory":1,"la1":30.2992,"la2":30.254,"lo1":-89.0895,"lo2":-89.0443,"dy":0.0025,"dx":0.0025,"nx":19,"ny":19,"refTime":"2026-04-23T03:00:00:Z","depth":0,"parameterNumber":3,"parameterNumberName":"V-component_of_WINDS"},"data":[0,0,0,2.9947,2.9948,2.9956,2.9956,2.9979,2.9979,0,0,0,0,0,0,0,0,0,0,0,2.9952,2.9952,2.9947,2.9948,2.9956,2.9956,2.9979,2.9979,0,0,0,0,0,0,0,0,0,0,0,2.9952,2.9952,2.9953,2.9948,2.9956,2.9956,2.9979,2.9968,0,0,0,0,0,0,0,0,0,0,2.9958,2.9969,2.9952,2.9953,2.9948,2.9956,2.9956,2.9967,2.9969,2.998,0,2.9992,0,2.9986,2.9981,2.9981,0,0,0,2.9942,2.9968,2.9964,2.9953,2.9948,2.9956,2.9951,2.9968,2.997,2.9982,2.9992,2.9993,2.9986,2.9982,2.9982,3.0066,3.0067,0,0,2.9942,2.9957,2.9963,2.9965,2.9964,2.995,2.9951,2.9969,2.9981,2.9992,2.9993,2.9987,2.9982,2.9982,3.0065,3.0066,0,0,0,2.9944,2.9957,2.9952,2.9965,2.9965,2.9951,2.9951,2.998,2.9977,2.9993,2.9987,2.9982,2.9982,3.0065,3.0066,3.0112,0,0,0,2.9944,2.9959,2.9952,2.9962,2.9965,2.9973,2.9963,2.9976,2.9977,2.9987,2.9982,2.9983,3.0064,3.0065,3.0109,3.0131,0,0,0,2.9949,2.9959,2.9963,2.9963,2.9967,2.9972,2.997,2.9976,2.9974,2.9981,2.9983,3.0063,3.0065,3.0106,3.0126,3.0157,0,0,0,2.9959,3.0004,2.9964,3.0011,2.9967,3.0001,2.997,2.9994,3.0006,2.9982,3.0064,3.0065,3.0106,3.0124,3.0154,3.0185,3.0199,0,0,3.0024,3.0012,3.0039,3.0003,3.0048,2.9998,3.005,3.0047,3.0034,3.0056,3.0058,3.011,3.0126,3.0156,3.0276,3.0287,0,0,0,3.0065,3.0084,3.0092,3.0105,3.0103,3.0104,3.0091,3.009,3.0108,3.0048,3.0129,3.0138,3.0156,3.0169,3.0179,3.0193,3.0073,3.0073,3.0072,3.0177,3.0158,3.0201,3.0184,3.0196,3.0183,3.0191,3.0187,3.0164,3.0184,3.019,3.0265,3.0282,3.0289,3.0303,3.0206,3.0206,3.0206,3.0206,3.0269,3.0293,3.0263,3.0293,3.0274,3.0299,3.0289,3.0272,3.0293,3.0259,3.0273,3.0235,3.0302,3.0314,3.0209,3.0209,3.0208,3.0208,3.0208,3.034,3.0348,3.0347,3.0363,3.0378,3.0359,3.0381,3.0362,3.0345,3.0359,3.0363,3.0362,3.0359,3.0363,3.0363,3.0363,3.0363,3.0364,3.0364,3.0414,3.041,3.0431,3.0434,3.044,3.0445,3.0434,3.0439,3.044,3.0425,3.0425,3.04,3.0312,3.029,3.0368,3.0367,3.0366,3.0366,3.0366,3.0512,3.0487,3.0519,3.0525,3.0528,3.0544,3.0521,3.0533,3.0535,3.0547,3.052,3.0458,3.0445,3.0437,3.0418,3.0524,3.0524,3.0524,3.0524,3.0571,3.0563,3.0591,3.0602,3.0611,3.0593,3.0631,3.0623,3.061,3.061,3.0593,3.0567,3.056,3.055,3.054,3.0522,3.0652,3.0652,3.0653,3.0631,3.0622,3.0657,3.0645,3.0646,3.0648,3.0682,3.0696,3.0677,3.0657,3.061,3.0605,3.0563,3.055,3.0528,3.0512,3.0479,0,0]}]]